Date String (YYYY-MM-DD hh:mm:ss) UTC,Instrument flags,Ambient pressure (hPa),Sample flow (lpm),Bypass flow (lpm),Sample temperature (°C),Ambient temperature (°C),ASC tube jacket temperature (°C),LED temperature (°C),Box temperature (°C),Sample RH (%),Span deviation,Mass concentration (μg/m³),Mass concentration (μg/m³),Mass concentration (μg/m³)
DateTimeUTC,F1_M11,P_M11,Q1_M11,Q2_M11,T1_M11,T2_M11,T3_M11,T4_M11,T5_M11,U1_M11,ZSPAN_M11,X0_M11,X2_M11,X1_M11
2021-08-20 16:00:00,,0824.4,4.99,0.00,29.4,28.4,00.0,38.6,31.1,14.8,0002.5,0023.30,0014.65,0013.58
2021-08-20 16:01:00,,0824.4,5.01,0.00,29.4,28.4,00.0,38.6,31.1,14.6,0002.6,0023.40,0014.63,0013.56
2021-08-20 16:02:00,,0824.4,5.00,0.00,29.4,28.4,00.0,38.6,31.1,14.8,0002.8,0023.16,0014.59,0013.53
2021-08-20 16:03:00,,0824.4,5.00,0.00,29.4,28.5,00.0,38.6,31.1,14.4,0002.8,0024.28,0014.58,0013.50
2021-08-20 16:04:00,,0824.5,4.99,0.00,29.4,28.5,00.0,38.7,31.1,14.3,0002.8,0025.08,0014.59,0013.46
2021-08-20 16:05:00,,0824.5,5.00,0.00,29.4,28.4,00.0,38.6,31.1,14.9,0002.9,0024.72,0014.53,0013.44
2021-08-20 16:06:00,,0824.4,5.00,0.00,29.4,28.4,00.0,38.7,31.1,15.3,0002.9,0023.81,0014.50,0013.43
2021-08-20 16:07:00,,0824.4,5.00,0.00,29.4,28.5,00.0,38.7,31.1,15.4,0002.8,0023.60,0014.49,0013.45
2021-08-20 16:08:00,,0824.5,4.98,0.00,29.4,28.5,00.0,38.7,31.1,15.2,0002.7,0022.96,0014.52,0013.50
2021-08-20 16:09:00,,0824.4,5.02,0.00,29.4,28.5,00.0,38.7,31.1,15.1,0002.8,0023.03,0014.56,0013.51
2021-08-20 16:10:00,,0824.1,4.98,0.00,29.4,28.5,00.0,38.7,31.1,15.2,0002.9,0023.40,0014.62,0013.53
2021-08-20 16:11:00,,0824.2,4.99,0.00,29.4,28.5,00.0,38.7,31.1,14.9,0002.8,0023.31,0014.76,0013.59
2021-08-20 16:12:00,,0824.1,5.01,0.00,29.4,28.5,00.0,38.7,31.1,15.2,0002.7,0024.71,0014.89,0013.64
2021-08-20 16:13:00,,0824.2,5.01,0.00,29.4,28.5,00.0,38.7,31.1,15.4,0002.4,0025.97,0015.05,0013.68
2021-08-20 16:14:00,,0824.2,4.99,0.00,29.4,28.6,00.0,38.7,31.1,15.1,0002.3,0025.22,0015.19,0013.72
2021-08-20 16:15:00,,0824.2,5.00,0.00,29.4,28.6,00.0,38.7,31.1,14.9,0002.1,0024.74,0015.25,0013.77
2021-08-20 16:16:00,,0824.4,5.01,0.00,29.4,28.5,00.0,38.7,31.1,15.2,0002.2,0025.26,0015.33,0013.82
2021-08-20 16:17:00,,0824.4,5.00,0.00,29.4,28.5,00.0,38.7,31.1,15.6,0002.4,0025.58,0015.40,0013.86
2021-08-20 16:18:00,,0824.4,4.99,0.00,29.4,28.4,00.0,38.7,31.1,15.5,0002.6,0025.66,0015.42,0013.87
2021-08-20 16:19:00,,0824.3,5.00,0.00,29.4,28.4,00.0,38.6,31.1,15.9,0002.6,0025.55,0015.40,0013.88
2021-08-20 16:20:00,,0824.4,5.00,0.00,29.4,28.4,00.0,38.7,31.1,15.9,0002.4,0025.57,0015.43,0013.91
2021-08-20 16:21:00,,0824.4,5.01,0.00,29.4,28.4,00.0,38.7,31.1,15.5,0002.2,0026.85,0015.49,0013.94
2021-08-20 16:22:00,,0824.3,5.00,0.00,29.4,28.4,00.0,38.7,31.1,15.1,0002.2,0026.76,0015.39,0013.94
2021-08-20 16:23:00,,0824.2,5.00,0.00,29.4,28.4,00.0,38.7,31.1,15.1,0002.3,0025.12,0015.30,0013.92
2021-08-20 16:24:00,,0824.4,5.02,0.00,29.4,28.4,00.0,38.7,31.1,15.5,0002.4,0023.84,0015.22,0013.92
2021-08-20 16:25:00,,0824.5,5.00,0.00,29.4,28.5,00.0,38.7,31.1,15.2,0002.3,0023.42,0015.11,0013.95
2021-08-20 16:26:00,,0824.5,5.00,0.00,29.4,28.5,00.0,38.7,31.1,15.2,0002.2,0023.59,0015.10,0013.98
2021-08-20 16:27:00,,0824.6,5.00,0.00,29.4,28.5,00.0,38.7,31.2,14.8,0002.0,0023.72,0015.06,0013.98
2021-08-20 16:28:00,,0824.4,5.00,0.00,29.5,28.5,00.0,38.7,31.2,15.1,0001.9,0023.45,0015.03,0014.00
2021-08-20 16:29:00,,0824.5,5.00,0.00,29.5,28.5,00.0,38.7,31.2,15.0,0001.9,0023.54,0015.00,0013.98
2021-08-20 16:30:00,,0824.5,5.01,0.00,29.5,28.6,00.0,38.7,31.2,14.7,0002.0,0023.51,0014.98,0013.97
2021-08-20 16:31:00,,0824.7,5.01,0.00,29.5,28.6,00.0,38.7,31.2,14.6,0002.0,0023.98,0014.87,0013.93
2021-08-20 16:32:00,,0824.7,5.00,0.00,29.5,28.5,00.0,38.7,31.2,14.7,0002.1,0022.46,0014.75,0013.93
2021-08-20 16:33:00,,0824.6,4.99,0.00,29.5,28.5,00.0,38.7,31.2,15.0,0002.1,0022.22,0014.69,0013.93
2021-08-20 16:34:00,,0824.6,5.00,0.00,29.5,28.5,00.0,38.7,31.2,15.4,0002.2,0022.83,0014.70,0013.92
2021-08-20 16:35:00,,0824.5,5.01,0.00,29.5,28.5,00.0,38.7,31.2,14.6,0002.3,0022.58,0014.63,0013.87
2021-08-20 16:36:00,,0824.4,5.00,0.00,29.5,28.6,00.0,38.7,31.2,14.7,0002.5,0022.54,0014.59,0013.81
2021-08-20 16:37:00,,0824.4,4.99,0.00,29.5,28.6,00.0,38.7,31.2,15.2,0002.5,0022.52,0014.54,0013.76
2021-08-20 16:38:00,,0824.6,5.01,0.00,29.5,28.5,00.0,38.7,31.2,15.5,0002.5,0022.06,0014.53,0013.73
2021-08-20 16:39:00,,0824.8,4.99,0.00,29.5,28.5,00.0,38.7,31.2,15.3,0002.7,0022.09,0014.54,0013.71
2021-08-20 16:40:00,,0824.7,5.01,0.00,29.5,28.5,00.0,38.7,31.2,15.3,0002.5,0021.88,0014.54,0013.70
2021-08-20 16:41:00,,0824.7,5.00,0.00,29.5,28.5,00.0,38.7,31.3,14.9,0002.3,0021.82,0014.51,0013.69
2021-08-20 16:42:00,,0824.6,5.01,0.00,29.6,28.5,00.0,38.7,31.3,14.5,0002.5,0021.04,0014.55,0013.69
2021-08-20 16:43:00,,0824.6,4.99,0.00,29.6,28.5,00.0,38.7,31.3,14.2,0002.4,0020.71,0014.55,0013.67
2021-08-20 16:44:00,,0824.6,5.00,0.00,29.6,28.6,00.0,38.7,31.3,14.5,0002.5,0020.62,0014.52,0013.64
2021-08-20 16:45:00,,0824.6,5.00,0.00,29.6,28.6,00.0,38.8,31.3,14.5,0002.3,0020.03,0014.45,0013.64
2021-08-20 16:46:00,,0824.7,5.00,0.00,29.6,28.7,00.0,38.8,31.4,15.0,0002.3,0020.61,0014.44,0013.66
2021-08-20 16:47:00,,0824.6,5.00,0.00,29.7,28.7,00.0,38.8,31.4,15.8,0002.4,0020.79,0014.45,0013.68
2021-08-20 16:48:00,,0824.7,5.01,0.00,29.7,28.7,00.0,38.8,31.4,14.0,0002.6,0020.39,0014.44,0013.68
2021-08-20 16:49:00,,0824.6,5.00,0.00,29.7,28.7,00.0,38.8,31.4,14.4,0002.7,0020.72,0014.44,0013.70
2021-08-20 16:50:00,,0824.7,4.99,0.00,29.7,28.8,00.0,38.8,31.5,15.2,0002.6,0020.63,0014.38,0013.66
2021-08-20 16:51:00,,0824.8,4.99,0.00,29.7,28.8,00.0,38.8,31.5,14.6,0002.8,0020.50,0014.31,0013.63
2021-08-20 16:52:00,,0824.9,5.01,0.00,29.8,28.8,00.0,38.8,31.5,14.7,0003.1,0020.37,0014.27,0013.63
2021-08-20 16:53:00,,0824.9,4.98,0.00,29.8,28.9,00.0,38.9,31.6,14.3,0003.0,0020.35,0014.24,0013.63
2021-08-20 16:54:00,,0825.0,5.02,0.00,29.8,28.9,00.0,38.9,31.6,14.6,0002.9,0020.46,0014.22,0013.62
2021-08-20 16:55:00,,0824.9,5.00,0.00,29.8,29.0,00.0,38.9,31.7,14.3,0002.7,0020.59,0014.20,0013.63
2021-08-20 16:56:00,,0824.9,4.99,0.00,29.9,29.0,00.0,38.9,31.7,14.2,0002.8,0020.39,0014.18,0013.60
2021-08-20 16:57:00,,0824.9,5.01,0.00,29.9,29.0,00.0,38.9,31.7,15.7,0002.7,0019.67,0014.15,0013.59
2021-08-20 16:58:00,,0824.9,4.99,0.00,29.9,29.1,00.0,38.9,31.7,15.9,0002.5,0019.39,0014.11,0013.60
2021-08-20 16:59:00,,0825.0,4.99,0.00,29.9,29.1,00.0,39.0,31.7,15.0,0002.3,0019.37,0014.09,0013.62
